SCOUT A DEB, 3122

Orbit data source: Space-Track

SCOUT A DEB, 3122 is space debris in LEO originally from a launch on Mon, 25 Sep 1967 UTC launched from the Air Force Western Test Range (AFWTR). Debris objects in space refer to the collection of defunct objects orbiting the Earth. Examples of debris include non-operational satellites, rocket bodies, and fragments generated from explosions, collisions, or faulty payload assembly.

Loading next visibility...
SCOUT A DEB details
Identifier
3122, 1967-092D
Orbit
LEO
Last TLE update16 hours ago
Origin
Flag of USUSN NAVAIR (US)
ManufacturerUnknown
MissionSpacecraft
Bus & MotorUnknown
MassUnknown
Launch date (UTC)
1967-09-25 (57 years ago)
Launch vehicleUnknown
Launch site
Air Force Western Test Range (AFWTR)
Object type
Payload
Rocket body
Debris
Shape & HBRUnknown
Radar Cross SectionSmall (<0.1 m²)

Expand to show TLE details & history

TLE from 16 hours ago
0 SCOUT A DEB
1 03122U 67092D   24355.85549355  .00000389  00000-0  79156-3 0  9996
2 03122  89.0827 137.1906 0184644 290.0542 224.7033 13.25678086511026
Epoch: 2024-12-20T20:31Z
Definitive object data (Epoch: 2024-12-20T20:31:54.642Z)
Latitude26.73523°
Longitude-81.16188°
Altitude1,266.629 km
Speed7.176 km/s
True Right ascension21h 06m 55s
True Declination26° 36' 23"
Sunlit
Object was in daylight at TLE epoch
Visualization TLE readout
Latitude67.43018°
Longitude-82.95824°
Altitude1,313.692 km
Speed7.139 km/s
Apparent Right ascension22h 39m 57s
Apparent Declination22° 05' 06"
Sunlit
Object is in daylight
Visualization observer readout
Local Sidereal Time11:39:15
Azimuth15.357° NNE
Elevation-26.475°
Doppler factor1
Orbital elements
Apogee altitude1,299.386 km
Perigee altitude1,021.005 km
Semi-major axis7,538.332 km
Eccentricity0.0184644
Inclination89.0827°
RAAN137.1906°
Arg. of periapsis290.0542°
True anomaly223.23912°
Mean anomaly224.7033°
Eccentric anomaly223.96881°
Mean motion3.31612 °/min
BSTAR0.00079156
Orbital period108.56 mins
Loading maneuver chart data...
Loading historical data...
Loading historical data...
Loading historical data...
Loading historical data...
Loading historical data...
Loading historical data...
Loading historical data...

SCOUT A DEB Visibility forecast

Observer location: undefined°, undefined

Span
Click to sort rows by Start time (UTC) header in descending order
Start Az.
Max El. time (UTC)
Max El. Az.
Max El.
End time (UTC)
End Az.
5 mins2024-12-21 19:57:25.269Z53.259° ENE2024-12-21 19:59:25.269Z69.196° E12.452°2024-12-21 20:02:25.269Z93.062° ESE
13 mins2024-12-21 21:43:25.269Z5.967° NNE2024-12-21 21:49:25.269Z87.321° E44.114°2024-12-21 21:56:25.269Z175.36° S
8 mins2024-12-21 23:33:25.269Z321.85° NNW2024-12-21 23:37:25.269Z285.028° WNW19.409°2024-12-21 23:41:25.269Z249.993° W
4 mins2024-12-22 08:10:25.269Z80.308° E2024-12-22 08:12:25.269Z62.818° ENE13.361°2024-12-22 08:14:25.269Z46.305° ENE
13 mins2024-12-22 09:53:25.269Z172.07° S2024-12-22 09:59:25.269Z47.684° ENE44.522°2024-12-22 10:06:25.269Z1.055° NNE
7 mins2024-12-22 11:45:25.269Z257.158° W2024-12-22 11:48:25.269Z284.712° WNW16.662°2024-12-22 11:52:25.269Z319.785° NNW
|